owner,sensor,date,latitude,longitude,vertical_datum,sea_water_practical_salinity,qcFlag 
DISL,ioos:station:DISL:DISL:1,2016-12-01T00:00:00Z,30.2513,-88.0778,2.203,29.31,1111122 
DISL,ioos:station:DISL:DISL:1,2016-12-01T00:30:00Z,30.2513,-88.0778,2.217,29.53,1111122 
DISL,ioos:station:DISL:DISL:1,2016-12-01T01:00:00Z,30.2513,-88.0778,2.23,29.64,1111122 
DISL,ioos:station:DISL:DISL:1,2016-12-01T01:30:00Z,30.2513,-88.0778,2.267,29.24,1111122 
DISL,ioos:station:DISL:DISL:1,2016-12-01T02:00:00Z,30.2513,-88.0778,2.326,29.17,1111122 
DISL,ioos:station:DISL:DISL:1,2016-12-01T02:30:00Z,30.2513,-88.0778,2.329,29.08,1111122 
DISL,ioos:station:DISL:DISL:1,2016-12-01T03:00:00Z,30.2513,-88.0778,2.344,29.06,1111122 
DISL,ioos:station:DISL:DISL:1,2016-12-01T03:30:00Z,30.2513,-88.0778,2.333,28.94,1111122 
DISL,ioos:station:DISL:DISL:1,2016-12-01T04:00:00Z,30.2513,-88.0778,2.325,28.87,1111122 
DISL,ioos:station:DISL:DISL:1,2016-12-01T04:30:00Z,30.2513,-88.0778,2.333,28.8,1111122 
DISL,ioos:station:DISL:DISL:1,2016-12-01T05:00:00Z,30.2513,-88.0778,2.323,28.74,1111122 
DISL,ioos:station:DISL:DISL:1,2016-12-01T05:30:00Z,30.2513,-88.0778,2.335,28.63,1111122 
DISL,ioos:station:DISL:DISL:1,2016-12-01T06:30:00Z,30.2513,-88.0778,2.315,28.43,1111122 
DISL,ioos:station:DISL:DISL:1,2016-12-01T07:00:00Z,30.2513,-88.0778,2.303,28.38,1111122 
DISL,ioos:station:DISL:DISL:1,2016-12-01T07:30:00Z,30.2513,-88.0778,2.271,28.56,1111122 
DISL,ioos:station:DISL:DISL:1,2016-12-01T08:00:00Z,30.2513,-88.0778,2.247,28.62,1111122 
DISL,ioos:station:DISL:DISL:1,2016-12-01T08:30:00Z,30.2513,-88.0778,2.208,28.61,1111122 
DISL,ioos:station:DISL:DISL:1,2016-12-01T09:00:00Z,30.2513,-88.0778,2.163,28.44,1111122 
DISL,ioos:station:DISL:DISL:1,2016-12-01T09:30:00Z,30.2513,-88.0778,2.119,28.85,1111122 
DISL,ioos:station:DISL:DISL:1,2016-12-01T10:00:00Z,30.2513,-88.0778,2.088,29.8,1111122 
DISL,ioos:station:DISL:DISL:1,2016-12-01T10:30:00Z,30.2513,-88.0778,2.012,29.49,1111122 
DISL,ioos:station:DISL:DISL:1,2016-12-01T11:00:00Z,30.2513,-88.0778,2.052,29.23,1111122 
DISL,ioos:station:DISL:DISL:1,2016-12-01T11:30:00Z,30.2513,-88.0778,2.025,29.2,1111122 
DISL,ioos:station:DISL:DISL:1,2016-12-01T12:00:00Z,30.2513,-88.0778,2.089,29.13,1111122 
DISL,ioos:station:DISL:DISL:1,2016-12-01T12:30:00Z,30.2513,-88.0778,1.966,29.01,1111122 
DISL,ioos:station:DISL:DISL:1,2016-12-01T13:00:00Z,30.2513,-88.0778,1.934,28.96,1111122 
DISL,ioos:station:DISL:DISL:1,2016-12-01T13:30:00Z,30.2513,-88.0778,1.902,28.89,1111122 
DISL,ioos:station:DISL:DISL:1,2016-12-01T14:00:00Z,30.2513,-88.0778,1.925,28.84,1111122 
DISL,ioos:station:DISL:DISL:1,2016-12-01T14:30:00Z,30.2513,-88.0778,1.892,28.83,1111122 
DISL,ioos:station:DISL:DISL:1,2016-12-01T15:00:00Z,30.2513,-88.0778,1.78,28.78,1111122 
DISL,ioos:station:DISL:DISL:1,2016-12-01T15:30:00Z,30.2513,-88.0778,1.881,28.67,1111122 
DISL,ioos:station:DISL:DISL:1,2016-12-01T16:00:00Z,30.2513,-88.0778,1.872,28.59,1111122 
DISL,ioos:station:DISL:DISL:1,2016-12-01T16:30:00Z,30.2513,-88.0778,1.879,28.45,1111122 
DISL,ioos:station:DISL:DISL:1,2016-12-01T17:00:00Z,30.2513,-88.0778,1.883,28.41,1111122 
DISL,ioos:station:DISL:DISL:1,2016-12-01T17:30:00Z,30.2513,-88.0778,1.893,28.59,1111122 
DISL,ioos:station:DISL:DISL:1,2016-12-01T18:00:00Z,30.2513,-88.0778,1.907,28.71,1111122 
DISL,ioos:station:DISL:DISL:1,2016-12-01T18:30:00Z,30.2513,-88.0778,1.93,28.77,1111122 
DISL,ioos:station:DISL:DISL:1,2016-12-01T19:00:00Z,30.2513,-88.0778,1.937,28.83,1111122 
DISL,ioos:station:DISL:DISL:1,2016-12-01T19:30:00Z,30.2513,-88.0778,1.924,28.81,1111122 
DISL,ioos:station:DISL:DISL:1,2016-12-01T20:00:00Z,30.2513,-88.0778,1.972,28.84,1111122 
DISL,ioos:station:DISL:DISL:1,2016-12-01T20:30:00Z,30.2513,-88.0778,1.983,28.96,1111122 
DISL,ioos:station:DISL:DISL:1,2016-12-01T21:00:00Z,30.2513,-88.0778,1.993,28.95,1111122 
DISL,ioos:station:DISL:DISL:1,2016-12-01T21:30:00Z,30.2513,-88.0778,2.01,28.89,1111122 
DISL,ioos:station:DISL:DISL:1,2016-12-01T22:00:00Z,30.2513,-88.0778,2.018,29.03,1111122 
DISL,ioos:station:DISL:DISL:1,2016-12-01T22:30:00Z,30.2513,-88.0778,2.048,29.05,1111122 
DISL,ioos:station:DISL:DISL:1,2016-12-01T23:00:00Z,30.2513,-88.0778,2.075,29.03,1111122 
DISL,ioos:station:DISL:DISL:1,2016-12-01T23:30:00Z,30.2513,-88.0778,2.102,29.01,1111122 
DISL,ioos:station:DISL:DISL:1,2016-12-02T00:00:00Z,30.2513,-88.0778,2.119,28.98,1111122 
DISL,ioos:station:DISL:DISL:1,2016-12-02T00:30:00Z,30.2513,-88.0778,2.134,28.95,1111122 
DISL,ioos:station:DISL:DISL:1,2016-12-02T01:00:00Z,30.2513,-88.0778,2.162,29.5,1111122 
DISL,ioos:station:DISL:DISL:1,2016-12-02T01:30:00Z,30.2513,-88.0778,2.213,30.61,1111122 
DISL,ioos:station:DISL:DISL:1,2016-12-02T02:00:00Z,30.2513,-88.0778,2.205,31.27,1111122 
DISL,ioos:station:DISL:DISL:1,2016-12-02T02:30:00Z,30.2513,-88.0778,2.204,31.3,1111122 
DISL,ioos:station:DISL:DISL:1,2016-12-02T03:00:00Z,30.2513,-88.0778,2.231,30.55,1111122 
DISL,ioos:station:DISL:DISL:1,2016-12-02T03:30:00Z,30.2513,-88.0778,2.229,30.07,1111122 
DISL,ioos:station:DISL:DISL:1,2016-12-02T04:00:00Z,30.2513,-88.0778,2.252,28.64,1111122 
DISL,ioos:station:DISL:DISL:1,2016-12-02T04:30:00Z,30.2513,-88.0778,2.247,28.57,1111122 
DISL,ioos:station:DISL:DISL:1,2016-12-02T05:00:00Z,30.2513,-88.0778,2.248,28.49,1111122 
DISL,ioos:station:DISL:DISL:1,2016-12-02T05:30:00Z,30.2513,-88.0778,2.291,28.5,1111122 
DISL,ioos:station:DISL:DISL:1,2016-12-02T06:30:00Z,30.2513,-88.0778,2.201,28.48,1111122 
DISL,ioos:station:DISL:DISL:1,2016-12-02T07:00:00Z,30.2513,-88.0778,2.177,29.13,1111122 
DISL,ioos:station:DISL:DISL:1,2016-12-02T07:30:00Z,30.2513,-88.0778,2.171,28.67,1111122 
DISL,ioos:station:DISL:DISL:1,2016-12-02T08:00:00Z,30.2513,-88.0778,2.132,28.34,1111122 
DISL,ioos:station:DISL:DISL:1,2016-12-02T08:30:00Z,30.2513,-88.0778,2.112,28.23,1111122 
DISL,ioos:station:DISL:DISL:1,2016-12-02T09:00:00Z,30.2513,-88.0778,2.05,28.27,1111122 
DISL,ioos:station:DISL:DISL:1,2016-12-02T09:30:00Z,30.2513,-88.0778,2.039,28.15,1111122 
DISL,ioos:station:DISL:DISL:1,2016-12-02T10:00:00Z,30.2513,-88.0778,1.99,28.1,1111122 
DISL,ioos:station:DISL:DISL:1,2016-12-02T10:30:00Z,30.2513,-88.0778,1.979,28.02,1111122 
DISL,ioos:station:DISL:DISL:1,2016-12-02T11:00:00Z,30.2513,-88.0778,1.939,27.92,1111122 
DISL,ioos:station:DISL:DISL:1,2016-12-02T11:30:00Z,30.2513,-88.0778,1.938,27.84,1111122 
DISL,ioos:station:DISL:DISL:1,2016-12-02T12:00:00Z,30.2513,-88.0778,1.805,27.91,1111122 
DISL,ioos:station:DISL:DISL:1,2016-12-02T12:30:00Z,30.2513,-88.0778,1.858,28.21,1111122 
DISL,ioos:station:DISL:DISL:1,2016-12-02T13:00:00Z,30.2513,-88.0778,1.841,28.33,1111122 
DISL,ioos:station:DISL:DISL:1,2016-12-02T13:30:00Z,30.2513,-88.0778,1.822,28.4,1111122 
DISL,ioos:station:DISL:DISL:1,2016-12-02T14:00:00Z,30.2513,-88.0778,1.783,28.38,1111122 
DISL,ioos:station:DISL:DISL:1,2016-12-02T14:30:00Z,30.2513,-88.0778,1.878,28.24,1111122 
DISL,ioos:station:DISL:DISL:1,2016-12-02T15:00:00Z,30.2513,-88.0778,1.796,28.14,1111122 
DISL,ioos:station:DISL:DISL:1,2016-12-02T15:30:00Z,30.2513,-88.0778,1.786,28.08,1111122 
DISL,ioos:station:DISL:DISL:1,2016-12-02T16:00:00Z,30.2513,-88.0778,1.749,27.93,1111122 
DISL,ioos:station:DISL:DISL:1,2016-12-02T16:30:00Z,30.2513,-88.0778,1.782,27.93,1111122 
DISL,ioos:station:DISL:DISL:1,2016-12-02T17:00:00Z,30.2513,-88.0778,1.78,27.91,1111122 
DISL,ioos:station:DISL:DISL:1,2016-12-02T17:30:00Z,30.2513,-88.0778,1.784,27.91,1111122 
DISL,ioos:station:DISL:DISL:1,2016-12-02T18:00:00Z,30.2513,-88.0778,1.76,28.14,1111122 
DISL,ioos:station:DISL:DISL:1,2016-12-02T18:30:00Z,30.2513,-88.0778,1.784,28.28,1111122 
DISL,ioos:station:DISL:DISL:1,2016-12-02T19:00:00Z,30.2513,-88.0778,1.817,28.26,1111122 
DISL,ioos:station:DISL:DISL:1,2016-12-02T19:30:00Z,30.2513,-88.0778,1.827,28.31,1111122 
DISL,ioos:station:DISL:DISL:1,2016-12-02T20:00:00Z,30.2513,-88.0778,1.839,28.24,1111122 
DISL,ioos:station:DISL:DISL:1,2016-12-02T20:30:00Z,30.2513,-88.0778,1.857,28.19,1111122 
DISL,ioos:station:DISL:DISL:1,2016-12-02T21:00:00Z,30.2513,-88.0778,1.867,28.07,1111122 
DISL,ioos:station:DISL:DISL:1,2016-12-02T21:30:00Z,30.2513,-88.0778,1.919,28.03,1111122 
DISL,ioos:station:DISL:DISL:1,2016-12-02T22:00:00Z,30.2513,-88.0778,1.936,28.0,1111122 
DISL,ioos:station:DISL:DISL:1,2016-12-02T22:30:00Z,30.2513,-88.0778,1.944,27.95,1111122 
DISL,ioos:station:DISL:DISL:1,2016-12-02T23:00:00Z,30.2513,-88.0778,1.957,28.03,1111122 
DISL,ioos:station:DISL:DISL:1,2016-12-02T23:30:00Z,30.2513,-88.0778,1.985,28.1,1111122 
DISL,ioos:station:DISL:DISL:1,2016-12-03T00:00:00Z,30.2513,-88.0778,2.034,28.42,1111122 
DISL,ioos:station:DISL:DISL:1,2016-12-03T00:30:00Z,30.2513,-88.0778,2.043,28.67,1111122 
DISL,ioos:station:DISL:DISL:1,2016-12-03T01:00:00Z,30.2513,-88.0778,2.063,29.94,1111122 
DISL,ioos:station:DISL:DISL:1,2016-12-03T01:30:00Z,30.2513,-88.0778,2.096,30.76,1111122 
DISL,ioos:station:DISL:DISL:1,2016-12-03T02:00:00Z,30.2513,-88.0778,2.148,30.97,1111122 
DISL,ioos:station:DISL:DISL:1,2016-12-03T02:30:00Z,30.2513,-88.0778,2.177,31.19,1111122 
DISL,ioos:station:DISL:DISL:1,2016-12-03T03:00:00Z,30.2513,-88.0778,2.162,31.47,1111122 
DISL,ioos:station:DISL:DISL:1,2016-12-03T03:30:00Z,30.2513,-88.0778,2.201,31.3,1111122 
DISL,ioos:station:DISL:DISL:1,2016-12-03T04:00:00Z,30.2513,-88.0778,2.221,30.87,1111122 
DISL,ioos:station:DISL:DISL:1,2016-12-03T04:30:00Z,30.2513,-88.0778,2.26,31.22,1111122 
DISL,ioos:station:DISL:DISL:1,2016-12-03T05:00:00Z,30.2513,-88.0778,2.095,30.86,1111122 
DISL,ioos:station:DISL:DISL:1,2016-12-03T05:30:00Z,30.2513,-88.0778,2.166,29.22,1111122 
DISL,ioos:station:DISL:DISL:1,2016-12-03T06:30:00Z,30.2513,-88.0778,2.219,28.78,1111122 
DISL,ioos:station:DISL:DISL:1,2016-12-03T07:00:00Z,30.2513,-88.0778,2.225,30.37,1111122 
DISL,ioos:station:DISL:DISL:1,2016-12-03T07:30:00Z,30.2513,-88.0778,2.166,29.82,1111122 
DISL,ioos:station:DISL:DISL:1,2016-12-03T08:00:00Z,30.2513,-88.0778,2.16,29.33,1111122 
DISL,ioos:station:DISL:DISL:1,2016-12-03T08:30:00Z,30.2513,-88.0778,2.162,28.53,1111122 
DISL,ioos:station:DISL:DISL:1,2016-12-03T09:00:00Z,30.2513,-88.0778,2.112,28.24,1111122 
DISL,ioos:station:DISL:DISL:1,2016-12-03T09:30:00Z,30.2513,-88.0778,2.097,28.09,1111122 
DISL,ioos:station:DISL:DISL:1,2016-12-03T10:00:00Z,30.2513,-88.0778,2.041,28.16,1111122 
DISL,ioos:station:DISL:DISL:1,2016-12-03T10:30:00Z,30.2513,-88.0778,2.086,27.92,1111122 
DISL,ioos:station:DISL:DISL:1,2016-12-03T11:00:00Z,30.2513,-88.0778,2.096,27.91,1111122 
DISL,ioos:station:DISL:DISL:1,2016-12-03T11:30:00Z,30.2513,-88.0778,1.963,27.88,1111122 
DISL,ioos:station:DISL:DISL:1,2016-12-03T12:00:00Z,30.2513,-88.0778,1.986,27.81,1111122 
DISL,ioos:station:DISL:DISL:1,2016-12-03T12:30:00Z,30.2513,-88.0778,2.046,27.83,1111122 
DISL,ioos:station:DISL:DISL:1,2016-12-03T13:00:00Z,30.2513,-88.0778,1.957,27.83,1111122 
DISL,ioos:station:DISL:DISL:1,2016-12-03T13:30:00Z,30.2513,-88.0778,1.93,27.9,1111122 
DISL,ioos:station:DISL:DISL:1,2016-12-03T14:00:00Z,30.2513,-88.0778,1.906,27.9,1111122 
DISL,ioos:station:DISL:DISL:1,2016-12-03T14:30:00Z,30.2513,-88.0778,1.9,27.89,1111122 
DISL,ioos:station:DISL:DISL:1,2016-12-03T15:00:00Z,30.2513,-88.0778,1.869,27.88,1111122 
DISL,ioos:station:DISL:DISL:1,2016-12-03T15:30:00Z,30.2513,-88.0778,1.862,27.88,1111122 
DISL,ioos:station:DISL:DISL:1,2016-12-03T16:00:00Z,30.2513,-88.0778,1.8,27.94,1111122 
DISL,ioos:station:DISL:DISL:1,2016-12-03T16:30:00Z,30.2513,-88.0778,1.864,28.27,1111122 
DISL,ioos:station:DISL:DISL:1,2016-12-03T17:00:00Z,30.2513,-88.0778,1.797,28.54,1111122 
DISL,ioos:station:DISL:DISL:1,2016-12-03T17:30:00Z,30.2513,-88.0778,1.825,28.61,1111122 
DISL,ioos:station:DISL:DISL:1,2016-12-03T18:00:00Z,30.2513,-88.0778,1.835,28.58,1111122 
DISL,ioos:station:DISL:DISL:1,2016-12-03T18:30:00Z,30.2513,-88.0778,1.924,29.27,1111122 
DISL,ioos:station:DISL:DISL:1,2016-12-03T19:00:00Z,30.2513,-88.0778,1.857,29.13,1111122 
DISL,ioos:station:DISL:DISL:1,2016-12-03T19:30:00Z,30.2513,-88.0778,1.876,28.69,1111122 
DISL,ioos:station:DISL:DISL:1,2016-12-03T20:00:00Z,30.2513,-88.0778,1.883,28.64,1111122 
DISL,ioos:station:DISL:DISL:1,2016-12-03T20:30:00Z,30.2513,-88.0778,1.896,28.73,1111122 
DISL,ioos:station:DISL:DISL:1,2016-12-03T21:00:00Z,30.2513,-88.0778,1.927,28.48,1111122 
DISL,ioos:station:DISL:DISL:1,2016-12-03T21:30:00Z,30.2513,-88.0778,1.948,28.49,1111122 
DISL,ioos:station:DISL:DISL:1,2016-12-03T22:00:00Z,30.2513,-88.0778,1.946,28.67,1111122 
DISL,ioos:station:DISL:DISL:1,2016-12-03T22:30:00Z,30.2513,-88.0778,1.971,28.74,1111122 
DISL,ioos:station:DISL:DISL:1,2016-12-03T23:00:00Z,30.2513,-88.0778,1.988,28.93,1111122 
DISL,ioos:station:DISL:DISL:1,2016-12-03T23:30:00Z,30.2513,-88.0778,2.012,29.31,1111122 
DISL,ioos:station:DISL:DISL:1,2016-12-04T00:00:00Z,30.2513,-88.0778,2.024,30.11,1111122 
DISL,ioos:station:DISL:DISL:1,2016-12-04T00:30:00Z,30.2513,-88.0778,2.051,30.24,1111122 
DISL,ioos:station:DISL:DISL:1,2016-12-04T01:00:00Z,30.2513,-88.0778,2.031,30.71,1111122 
DISL,ioos:station:DISL:DISL:1,2016-12-04T01:30:00Z,30.2513,-88.0778,2.142,30.6,1111122 
DISL,ioos:station:DISL:DISL:1,2016-12-04T02:00:00Z,30.2513,-88.0778,2.259,30.99,1111122 
DISL,ioos:station:DISL:DISL:1,2016-12-04T02:30:00Z,30.2513,-88.0778,2.172,31.23,1111122 
DISL,ioos:station:DISL:DISL:1,2016-12-04T03:00:00Z,30.2513,-88.0778,2.309,31.24,1111122 
DISL,ioos:station:DISL:DISL:1,2016-12-04T03:30:00Z,30.2513,-88.0778,2.194,31.07,1111122 
DISL,ioos:station:DISL:DISL:1,2016-12-04T04:00:00Z,30.2513,-88.0778,2.237,31.07,1111122 
DISL,ioos:station:DISL:DISL:1,2016-12-04T04:30:00Z,30.2513,-88.0778,2.241,30.92,1111122 
DISL,ioos:station:DISL:DISL:1,2016-12-04T05:00:00Z,30.2513,-88.0778,2.266,30.83,1111122 
DISL,ioos:station:DISL:DISL:1,2016-12-04T05:30:00Z,30.2513,-88.0778,2.237,31.0,1111122 
DISL,ioos:station:DISL:DISL:1,2016-12-04T06:30:00Z,30.2513,-88.0778,2.279,31.28,1111122 
DISL,ioos:station:DISL:DISL:1,2016-12-04T07:00:00Z,30.2513,-88.0778,2.317,31.51,1111122 
DISL,ioos:station:DISL:DISL:1,2016-12-04T07:30:00Z,30.2513,-88.0778,2.332,31.9,1111122 
DISL,ioos:station:DISL:DISL:1,2016-12-04T08:00:00Z,30.2513,-88.0778,2.359,32.02,1111122 
DISL,ioos:station:DISL:DISL:1,2016-12-04T08:30:00Z,30.2513,-88.0778,2.386,32.09,1111122 
DISL,ioos:station:DISL:DISL:1,2016-12-04T09:00:00Z,30.2513,-88.0778,2.358,32.09,1111122 
DISL,ioos:station:DISL:DISL:1,2016-12-04T09:30:00Z,30.2513,-88.0778,2.349,32.08,1111122 
DISL,ioos:station:DISL:DISL:1,2016-12-04T10:00:00Z,30.2513,-88.0778,2.331,32.05,1111122 
DISL,ioos:station:DISL:DISL:1,2016-12-04T10:30:00Z,30.2513,-88.0778,2.338,32.04,1111122 
DISL,ioos:station:DISL:DISL:1,2016-12-04T11:00:00Z,30.2513,-88.0778,2.299,32.05,1111122 
DISL,ioos:station:DISL:DISL:1,2016-12-04T11:30:00Z,30.2513,-88.0778,2.266,32.03,1111122 
DISL,ioos:station:DISL:DISL:1,2016-12-04T12:00:00Z,30.2513,-88.0778,2.265,31.81,1111122 
DISL,ioos:station:DISL:DISL:1,2016-12-04T12:30:00Z,30.2513,-88.0778,2.231,31.77,1111122 
DISL,ioos:station:DISL:DISL:1,2016-12-04T13:00:00Z,30.2513,-88.0778,2.228,31.68,1111122 
DISL,ioos:station:DISL:DISL:1,2016-12-04T13:30:00Z,30.2513,-88.0778,2.271,31.27,1111122 
DISL,ioos:station:DISL:DISL:1,2016-12-04T14:00:00Z,30.2513,-88.0778,2.149,31.01,1111122 
DISL,ioos:station:DISL:DISL:1,2016-12-04T14:30:00Z,30.2513,-88.0778,2.135,30.28,1111122 
DISL,ioos:station:DISL:DISL:1,2016-12-04T15:00:00Z,30.2513,-88.0778,2.146,29.41,1111122 
DISL,ioos:station:DISL:DISL:1,2016-12-04T15:30:00Z,30.2513,-88.0778,2.128,29.49,1111122 
DISL,ioos:station:DISL:DISL:1,2016-12-04T16:00:00Z,30.2513,-88.0778,2.035,29.67,1111122 
DISL,ioos:station:DISL:DISL:1,2016-12-04T16:30:00Z,30.2513,-88.0778,2.097,29.62,1111122 
DISL,ioos:station:DISL:DISL:1,2016-12-04T17:00:00Z,30.2513,-88.0778,2.105,30.0,1111122 
DISL,ioos:station:DISL:DISL:1,2016-12-04T17:30:00Z,30.2513,-88.0778,2.124,30.77,1111122 
DISL,ioos:station:DISL:DISL:1,2016-12-04T18:00:00Z,30.2513,-88.0778,2.067,30.86,1111122 
DISL,ioos:station:DISL:DISL:1,2016-12-04T18:30:00Z,30.2513,-88.0778,2.081,30.91,1111122 
DISL,ioos:station:DISL:DISL:1,2016-12-04T19:00:00Z,30.2513,-88.0778,2.058,31.04,1111122 
DISL,ioos:station:DISL:DISL:1,2016-12-04T19:30:00Z,30.2513,-88.0778,2.074,31.15,1111122 
DISL,ioos:station:DISL:DISL:1,2016-12-04T20:00:00Z,30.2513,-88.0778,2.094,31.13,1111122 
DISL,ioos:station:DISL:DISL:1,2016-12-04T20:30:00Z,30.2513,-88.0778,2.093,31.12,1111122 
DISL,ioos:station:DISL:DISL:1,2016-12-04T21:00:00Z,30.2513,-88.0778,2.12,31.36,1111122 
DISL,ioos:station:DISL:DISL:1,2016-12-04T21:30:00Z,30.2513,-88.0778,2.122,31.45,1111122 
DISL,ioos:station:DISL:DISL:1,2016-12-04T22:00:00Z,30.2513,-88.0778,2.103,31.2,1111122 
DISL,ioos:station:DISL:DISL:1,2016-12-04T22:30:00Z,30.2513,-88.0778,2.17,30.88,1111122 
DISL,ioos:station:DISL:DISL:1,2016-12-04T23:00:00Z,30.2513,-88.0778,2.131,29.46,1111122 
DISL,ioos:station:DISL:DISL:1,2016-12-04T23:30:00Z,30.2513,-88.0778,2.186,30.33,1111122 
DISL,ioos:station:DISL:DISL:1,2016-12-05T00:00:00Z,30.2513,-88.0778,2.191,29.3,1111122 
DISL,ioos:station:DISL:DISL:1,2016-12-05T00:30:00Z,30.2513,-88.0778,2.215,29.1,1111122 
DISL,ioos:station:DISL:DISL:1,2016-12-05T01:00:00Z,30.2513,-88.0778,2.217,30.73,1111122 
DISL,ioos:station:DISL:DISL:1,2016-12-05T01:30:00Z,30.2513,-88.0778,2.206,30.62,1111122 
DISL,ioos:station:DISL:DISL:1,2016-12-05T02:00:00Z,30.2513,-88.0778,2.222,30.72,1111122 
DISL,ioos:station:DISL:DISL:1,2016-12-05T02:30:00Z,30.2513,-88.0778,2.212,30.74,1111122 
DISL,ioos:station:DISL:DISL:1,2016-12-05T03:00:00Z,30.2513,-88.0778,2.247,30.39,1111122 
DISL,ioos:station:DISL:DISL:1,2016-12-05T03:30:00Z,30.2513,-88.0778,2.248,29.77,1111122 
DISL,ioos:station:DISL:DISL:1,2016-12-05T04:00:00Z,30.2513,-88.0778,2.272,28.74,1111122 
DISL,ioos:station:DISL:DISL:1,2016-12-05T04:30:00Z,30.2513,-88.0778,2.278,30.27,1111122 
DISL,ioos:station:DISL:DISL:1,2016-12-05T05:00:00Z,30.2513,-88.0778,2.295,28.9,1111122 
DISL,ioos:station:DISL:DISL:1,2016-12-05T05:30:00Z,30.2513,-88.0778,2.308,30.08,1111122 
DISL,ioos:station:DISL:DISL:1,2016-12-05T06:30:00Z,30.2513,-88.0778,2.293,31.31,1111122 
DISL,ioos:station:DISL:DISL:1,2016-12-05T07:00:00Z,30.2513,-88.0778,2.351,30.83,1111122 
DISL,ioos:station:DISL:DISL:1,2016-12-05T07:30:00Z,30.2513,-88.0778,2.32,31.39,1111122 
DISL,ioos:station:DISL:DISL:1,2016-12-05T08:00:00Z,30.2513,-88.0778,2.335,31.3,1111122 
DISL,ioos:station:DISL:DISL:1,2016-12-05T08:30:00Z,30.2513,-88.0778,2.329,31.85,1111122 
DISL,ioos:station:DISL:DISL:1,2016-12-05T09:00:00Z,30.2513,-88.0778,2.35,31.87,1111122 
DISL,ioos:station:DISL:DISL:1,2016-12-05T09:30:00Z,30.2513,-88.0778,2.36,30.05,1111122 
DISL,ioos:station:DISL:DISL:1,2016-12-05T10:00:00Z,30.2513,-88.0778,2.35,30.81,1111122 
DISL,ioos:station:DISL:DISL:1,2016-12-05T10:30:00Z,30.2513,-88.0778,2.343,30.06,1111122 
DISL,ioos:station:DISL:DISL:1,2016-12-05T11:00:00Z,30.2513,-88.0778,2.335,28.63,1111122 
DISL,ioos:station:DISL:DISL:1,2016-12-05T11:30:00Z,30.2513,-88.0778,2.277,28.47,1111122 
DISL,ioos:station:DISL:DISL:1,2016-12-05T12:00:00Z,30.2513,-88.0778,2.238,27.94,1111122 
DISL,ioos:station:DISL:DISL:1,2016-12-05T12:30:00Z,30.2513,-88.0778,2.219,27.46,1111122 
DISL,ioos:station:DISL:DISL:1,2016-12-05T13:00:00Z,30.2513,-88.0778,2.195,26.88,1111122 
DISL,ioos:station:DISL:DISL:1,2016-12-05T13:30:00Z,30.2513,-88.0778,2.134,26.58,1111122 
DISL,ioos:station:DISL:DISL:1,2016-12-05T14:00:00Z,30.2513,-88.0778,2.1,26.52,1111122 
DISL,ioos:station:DISL:DISL:1,2016-12-05T14:30:00Z,30.2513,-88.0778,2.068,26.32,1111122 
DISL,ioos:station:DISL:DISL:1,2016-12-05T15:00:00Z,30.2513,-88.0778,2.07,26.29,1111122 
DISL,ioos:station:DISL:DISL:1,2016-12-05T15:30:00Z,30.2513,-88.0778,2.076,26.26,1111122 
DISL,ioos:station:DISL:DISL:1,2016-12-05T16:00:00Z,30.2513,-88.0778,1.74,26.23,1111122 
DISL,ioos:station:DISL:DISL:1,2016-12-05T16:30:00Z,30.2513,-88.0778,2.031,26.28,1111122 
DISL,ioos:station:DISL:DISL:1,2016-12-05T17:00:00Z,30.2513,-88.0778,2.03,26.32,1111122 
DISL,ioos:station:DISL:DISL:1,2016-12-05T17:30:00Z,30.2513,-88.0778,2.051,26.36,1111122 
DISL,ioos:station:DISL:DISL:1,2016-12-05T18:00:00Z,30.2513,-88.0778,2.033,26.34,1111122 
DISL,ioos:station:DISL:DISL:1,2016-12-05T18:30:00Z,30.2513,-88.0778,2.03,26.41,1111122 
DISL,ioos:station:DISL:DISL:1,2016-12-05T19:00:00Z,30.2513,-88.0778,2.091,26.33,1111122 
DISL,ioos:station:DISL:DISL:1,2016-12-05T19:30:00Z,30.2513,-88.0778,2.084,26.32,1111122 
DISL,ioos:station:DISL:DISL:1,2016-12-05T20:00:00Z,30.2513,-88.0778,2.094,27.28,1111122 
DISL,ioos:station:DISL:DISL:1,2016-12-05T20:30:00Z,30.2513,-88.0778,2.133,28.69,1111122 
DISL,ioos:station:DISL:DISL:1,2016-12-05T21:00:00Z,30.2513,-88.0778,2.144,27.96,1111122 
DISL,ioos:station:DISL:DISL:1,2016-12-05T21:30:00Z,30.2513,-88.0778,2.154,28.05,1111122 
DISL,ioos:station:DISL:DISL:1,2016-12-05T22:00:00Z,30.2513,-88.0778,2.285,25.73,1111122 
DISL,ioos:station:DISL:DISL:1,2016-12-05T22:30:00Z,30.2513,-88.0778,2.181,25.39,1111122 
DISL,ioos:station:DISL:DISL:1,2016-12-05T23:00:00Z,30.2513,-88.0778,2.176,25.43,1111122 
DISL,ioos:station:DISL:DISL:1,2016-12-05T23:30:00Z,30.2513,-88.0778,2.139,25.27,1111122 
DISL,ioos:station:DISL:DISL:1,2016-12-06T00:00:00Z,30.2513,-88.0778,2.166,25.25,1111122 
DISL,ioos:station:DISL:DISL:1,2016-12-06T00:30:00Z,30.2513,-88.0778,2.169,25.53,1111122 
DISL,ioos:station:DISL:DISL:1,2016-12-06T01:00:00Z,30.2513,-88.0778,2.06,25.51,1111122 
DISL,ioos:station:DISL:DISL:1,2016-12-06T01:30:00Z,30.2513,-88.0778,2.173,25.38,1111122 
DISL,ioos:station:DISL:DISL:1,2016-12-06T02:00:00Z,30.2513,-88.0778,2.179,25.44,1111122 
DISL,ioos:station:DISL:DISL:1,2016-12-06T02:30:00Z,30.2513,-88.0778,2.171,30.0,1111122 
DISL,ioos:station:DISL:DISL:1,2016-12-06T03:00:00Z,30.2513,-88.0778,2.196,29.71,1111122 
DISL,ioos:station:DISL:DISL:1,2016-12-06T03:30:00Z,30.2513,-88.0778,2.211,29.58,1111122 
DISL,ioos:station:DISL:DISL:1,2016-12-06T04:00:00Z,30.2513,-88.0778,2.284,29.18,1111122 
DISL,ioos:station:DISL:DISL:1,2016-12-06T04:30:00Z,30.2513,-88.0778,2.283,26.41,1111122 
DISL,ioos:station:DISL:DISL:1,2016-12-06T05:00:00Z,30.2513,-88.0778,2.312,25.63,1111122 
DISL,ioos:station:DISL:DISL:1,2016-12-06T05:30:00Z,30.2513,-88.0778,2.349,25.42,1111122 
DISL,ioos:station:DISL:DISL:1,2016-12-06T06:30:00Z,30.2513,-88.0778,2.426,25.19,1111122 
DISL,ioos:station:DISL:DISL:1,2016-12-06T07:00:00Z,30.2513,-88.0778,2.405,31.4,1111122 
DISL,ioos:station:DISL:DISL:1,2016-12-06T07:30:00Z,30.2513,-88.0778,2.417,25.08,1111122 
DISL,ioos:station:DISL:DISL:1,2016-12-06T08:00:00Z,30.2513,-88.0778,2.438,24.9,1111122 
DISL,ioos:station:DISL:DISL:1,2016-12-06T08:30:00Z,30.2513,-88.0778,2.461,24.81,1111122 
DISL,ioos:station:DISL:DISL:1,2016-12-06T09:00:00Z,30.2513,-88.0778,2.401,25.09,1111122 
DISL,ioos:station:DISL:DISL:1,2016-12-06T09:30:00Z,30.2513,-88.0778,2.414,25.1,1111122 
DISL,ioos:station:DISL:DISL:1,2016-12-06T10:00:00Z,30.2513,-88.0778,2.368,25.11,1111122 
DISL,ioos:station:DISL:DISL:1,2016-12-06T10:30:00Z,30.2513,-88.0778,2.358,25.06,1111122 
DISL,ioos:station:DISL:DISL:1,2016-12-06T11:00:00Z,30.2513,-88.0778,2.328,24.98,1111122 
DISL,ioos:station:DISL:DISL:1,2016-12-06T11:30:00Z,30.2513,-88.0778,2.297,24.92,1111122 
DISL,ioos:station:DISL:DISL:1,2016-12-06T12:00:00Z,30.2513,-88.0778,2.293,24.84,1111122 
DISL,ioos:station:DISL:DISL:1,2016-12-06T12:30:00Z,30.2513,-88.0778,2.244,24.88,1111122 
DISL,ioos:station:DISL:DISL:1,2016-12-06T13:00:00Z,30.2513,-88.0778,2.226,24.94,1111122 
DISL,ioos:station:DISL:DISL:1,2016-12-06T13:30:00Z,30.2513,-88.0778,2.276,25.04,1111122 
DISL,ioos:station:DISL:DISL:1,2016-12-06T14:00:00Z,30.2513,-88.0778,2.225,25.11,1111122 
DISL,ioos:station:DISL:DISL:1,2016-12-06T14:30:00Z,30.2513,-88.0778,2.216,25.17,1111122 
DISL,ioos:station:DISL:DISL:1,2016-12-06T15:00:00Z,30.2513,-88.0778,2.162,25.15,1111122 
DISL,ioos:station:DISL:DISL:1,2016-12-06T15:30:00Z,30.2513,-88.0778,2.126,25.14,1111122 
DISL,ioos:station:DISL:DISL:1,2016-12-06T16:00:00Z,30.2513,-88.0778,2.116,25.06,1111122 
DISL,ioos:station:DISL:DISL:1,2016-12-06T16:30:00Z,30.2513,-88.0778,2.079,24.72,1111122 
DISL,ioos:station:DISL:DISL:1,2016-12-06T17:00:00Z,30.2513,-88.0778,2.056,24.57,1111122 